Charlevoix, MI

8:21 PM EDT on October 19, 2017 (GMT -0400)
Charlevoix Municipal

Weather History for KCVX - March, 2013

Change the Weather History Date:

Monday, March 18, 2013

  Actual Average Record
Temperature  
Mean Temperature 26 °F -  
Max Temperature 38 °F 34 °F 77 °F (2012)
Min Temperature 15 °F 18 °F 6 °F (2005)
Degree Days  
Heating Degree Days 38    
Moisture  
Dew Point 19 °F    
Average Humidity 77    
Maximum Humidity 100    
Minimum Humidity 43    
Precipitation  
Precipitation 0.00 in - - ()
Sea Level Pressure  
Sea Level Pressure 29.85 in    
Wind  
Wind Speed 9 mph (ESE)    
Max Wind Speed 20 mph    
Max Gust Speed 28 mph    
Visibility 8 miles    
Events Snow    
Averages and records for this station are not official NWS values.
T = Trace of Precipitation, MM = Missing Value Source: NWS Daily Summary

Daily Weather History Graph

Daily Weather History Graph

Search for Another Location

Airport or City:

Trip Planner

Search our weather history database for the weather conditions in past years. The results will help you decide how hot, cold, wet, or windy it might be!

Date:

Astronomy

Mar. 18, 2013 Rise Set
Actual Time 7:47 AM EDT 7:51 PM EDT
Civil Twilight 7:18 AM EDT 8:20 PM EDT
Nautical Twilight 6:43 AM EDT 8:55 PM EDT
Astronomical Twilight 6:08 AM EDT 9:30 PM EDT
Moon 11:30 AM EDT (3/18) 2:05 AM EDT (3/18)
Length of Visible Light 13h 02m
Length of Day
12h 03m
Waxing Crescent, 40% of the Moon is Illuminated
Mar 18
Waxing Crescent
Mar 19
First Quarter
Mar 27
Full
Apr 3
Last Quarter
Apr 10
New

Hourly Weather History & Observations

Time (EDT) Temp. Windchill Dew Point Humidity Pressure Visibility Wind Dir Wind Speed Gust Speed Precip Events Conditions
12:14 AM 16.7 °F 11.2 °F 6.8 °F 65% 30.21 in 10.0 mi ESE 3.5 mph - N/A   Clear
12:34 AM 17.4 °F 10.4 °F 7.7 °F 66% 30.20 in 10.0 mi SE 4.6 mph - N/A   Clear
12:54 AM 18.5 °F 10.4 °F 10.2 °F 70% 30.20 in 10.0 mi SE 5.8 mph - N/A   Clear
1:14 AM 18.0 °F 12.7 °F 10.4 °F 72% 30.20 in 10.0 mi SE 3.5 mph - N/A   Clear
1:34 AM 18.1 °F 7.9 °F 10.6 °F 72% 30.19 in 10.0 mi SE 8.1 mph - N/A   Clear
1:54 AM 17.6 °F 9.3 °F 10.6 °F 74% 30.18 in 10.0 mi ESE 5.8 mph - N/A   Clear
2:14 AM 17.2 °F 7.8 °F 10.8 °F 76% 30.18 in 10.0 mi East 6.9 mph - N/A   Clear
2:34 AM 16.7 °F 5.3 °F 10.4 °F 76% 30.17 in 10.0 mi ESE 9.2 mph - N/A   Clear
2:54 AM 16.5 °F 5.1 °F 10.4 °F 77% 30.16 in 10.0 mi ESE 9.2 mph - N/A   Clear
3:15 AM 16.0 °F 5.3 °F 9.9 °F 77% 30.15 in 10.0 mi ESE 8.1 mph - N/A   Clear
3:34 AM 15.8 °F 4.2 °F 9.5 °F 76% 30.15 in 10.0 mi ESE 9.2 mph - N/A   Clear
3:54 AM 15.8 °F 3.4 °F 9.5 °F 76% 30.14 in 10.0 mi ESE 10.4 mph - N/A   Clear
4:15 AM 15.6 °F 4.9 °F 9.5 °F 77% 30.13 in 10.0 mi ESE 8.1 mph - N/A   Clear
4:34 AM 15.3 °F 6.6 °F 9.5 °F 78% 30.13 in 10.0 mi ESE 5.8 mph - N/A   Clear
4:54 AM 15.3 °F 6.6 °F 9.9 °F 79% 30.12 in 10.0 mi ESE 5.8 mph - N/A   Clear
5:14 AM 15.4 °F 5.6 °F 10.2 °F 80% 30.10 in 10.0 mi ESE 6.9 mph - N/A   Clear
5:34 AM 15.4 °F 3.0 °F 10.6 °F 81% 30.09 in 10.0 mi East 10.4 mph - N/A   Clear
5:55 AM 16.2 °F 3.2 °F 11.1 °F 81% 30.07 in 10.0 mi ESE 11.5 mph 18.4 mph N/A   Clear
6:14 AM 16.5 °F 5.1 °F 11.3 °F 80% 30.07 in 10.0 mi ESE 9.2 mph - N/A   Clear
6:35 AM 16.5 °F 8.1 °F 11.7 °F 81% 30.07 in 10.0 mi ESE 5.8 mph - N/A   Clear
6:54 AM 16.7 °F 6.2 °F 12.2 °F 82% 30.07 in 10.0 mi ESE 8.1 mph - N/A   Clear
7:15 AM 17.2 °F 6.8 °F 12.6 °F 82% 30.05 in 10.0 mi ESE 8.1 mph - N/A   Clear
7:34 AM 17.2 °F 4.5 °F 12.7 °F 83% 30.03 in 10.0 mi ESE 11.5 mph - N/A   Clear
7:55 AM 17.8 °F 5.9 °F 13.1 °F 82% 30.02 in 10.0 mi ESE 10.4 mph - N/A   Clear
8:15 AM 18.7 °F 5.7 °F 13.6 °F 81% 30.01 in 10.0 mi ESE 12.7 mph - N/A   Clear
8:34 AM 19.4 °F 7.9 °F 14.0 °F 80% 30.00 in 10.0 mi ESE 10.4 mph - N/A   Clear
8:55 AM 20.1 °F 9.5 °F 14.7 °F 80% 30.00 in 10.0 mi ESE 9.2 mph - N/A   Clear
9:14 AM 21.2 °F 10.1 °F 15.8 °F 80% 29.97 in 10.0 mi East 10.4 mph - N/A   Clear
9:34 AM 22.6 °F 11.9 °F 16.7 °F 78% 29.96 in 10.0 mi ESE 10.4 mph - N/A   Clear
9:55 AM 23.7 °F 15.6 °F 17.6 °F 77% 29.95 in 10.0 mi East 6.9 mph - N/A   Clear
10:14 AM 25.5 °F 16.2 °F 17.6 °F 72% 29.95 in 10.0 mi East 9.2 mph - N/A   Clear
10:34 AM 26.6 °F 16.8 °F 18.3 °F 71% 29.93 in 10.0 mi East 10.4 mph - N/A   Clear
10:55 AM 28.0 °F 17.5 °F 18.5 °F 67% 29.91 in 10.0 mi ESE 12.7 mph 17.3 mph N/A   Clear
11:14 AM 29.5 °F 19.9 °F 18.5 °F 64% 29.90 in 10.0 mi East 11.5 mph - N/A   Clear
11:34 AM 31.6 °F 23.1 °F 19.2 °F 60% 29.89 in 10.0 mi East 10.4 mph 17.3 mph N/A   Clear
11:54 AM 32.0 °F 20.8 °F 19.6 °F 60% 29.87 in 10.0 mi East 17.3 mph 21.9 mph N/A   Clear
12:14 PM 32.0 °F 20.5 °F 19.4 °F 60% 29.85 in 10.0 mi East 18.4 mph - N/A   Clear
12:35 PM 32.4 °F 21.3 °F 19.6 °F 59% 29.82 in 10.0 mi ESE 17.3 mph 23.0 mph N/A   Clear
12:54 PM 33.8 °F 23.5 °F 19.8 °F 56% 29.79 in 10.0 mi East 16.1 mph 26.5 mph N/A   Clear
1:14 PM 35.1 °F 25.2 °F 20.3 °F 55% 29.77 in 10.0 mi East 16.1 mph 21.9 mph N/A   Clear
1:35 PM 36.5 °F 26.7 °F 19.6 °F 50% 29.76 in 10.0 mi ESE 17.3 mph 20.7 mph N/A   Clear
1:54 PM 37.4 °F 28.5 °F 19.8 °F 49% 29.74 in 10.0 mi East 15.0 mph 21.9 mph N/A   Clear
2:14 PM 37.4 °F 28.5 °F 18.9 °F 47% 29.72 in 10.0 mi ESE 15.0 mph 21.9 mph N/A   Clear
2:35 PM 38.7 °F 30.5 °F 18.0 °F 43% 29.71 in 10.0 mi ESE 13.8 mph 21.9 mph N/A   Clear
2:54 PM 38.3 °F 29.3 °F 19.4 °F 47% 29.68 in 10.0 mi East 16.1 mph - N/A   Clear
3:14 PM 37.8 °F 29.0 °F 20.5 °F 50% 29.66 in 10.0 mi ESE 15.0 mph - N/A   Mostly Cloudy
3:35 PM 37.6 °F 28.4 °F 21.7 °F 53% 29.64 in 10.0 mi ESE 16.1 mph 20.7 mph N/A   Mostly Cloudy
3:54 PM 37.4 °F 27.2 °F 22.1 °F 54% 29.63 in 10.0 mi East 19.6 mph 23.0 mph N/A   Overcast
4:15 PM 36.7 °F 26.6 °F 22.8 °F 57% 29.63 in 10.0 mi East 18.4 mph 24.2 mph N/A   Overcast
4:34 PM 35.1 °F 24.8 °F 24.3 °F 65% 29.63 in 10.0 mi ESE 17.3 mph 25.3 mph N/A   Overcast
4:54 PM 33.8 °F 22.8 °F 26.2 °F 74% 29.63 in 4.0 mi ESE 18.4 mph 27.6 mph N/A Snow Light Snow
5:15 PM 32.0 °F 21.2 °F 27.3 °F 83% 29.63 in 2.0 mi ESE 16.1 mph 23.0 mph N/A Snow Light Snow
5:34 PM 31.6 °F 21.6 °F 28.9 °F 90% 29.64 in 1.0 mi ESE 13.8 mph 18.4 mph N/A Snow Light Snow
5:54 PM 30.6 °F 23.1 °F 29.7 °F 96% 29.63 in 0.5 mi ESE 8.1 mph 16.1 mph N/A Snow Light Snow
6:15 PM 30.2 °F 22.6 °F 29.8 °F 99% 29.62 in 0.8 mi ESE 8.1 mph - N/A Snow Light Snow
6:34 PM 30.2 °F 21.9 °F 30.0 °F 99% 29.61 in 0.8 mi East 9.2 mph - N/A Snow Light Snow
6:54 PM 30.0 °F 21.7 °F 30.0 °F 100% 29.60 in 1.0 mi ESE 9.2 mph - N/A Snow Light Snow
7:15 PM 30.0 °F 23.2 °F 30.0 °F 100% 29.59 in 0.8 mi East 6.9 mph - N/A Snow Light Snow
7:34 PM 30.0 °F 24.1 °F 30.0 °F 100% 29.58 in 0.8 mi East 5.8 mph - N/A Snow Light Snow
7:54 PM 30.0 °F 22.4 °F 30.0 °F 100% 29.58 in 0.5 mi East 8.1 mph - N/A Snow Snow
8:14 PM 29.8 °F 23.0 °F 29.8 °F 100% 29.57 in 0.8 mi ESE 6.9 mph - N/A Snow Snow
8:34 PM 30.0 °F 23.2 °F 30.0 °F 100% 29.57 in 1.2 mi East 6.9 mph - N/A Snow Light Snow
8:54 PM 30.0 °F 24.1 °F 30.0 °F 100% 29.56 in 1.5 mi ESE 5.8 mph - N/A Snow Light Snow
9:14 PM 30.2 °F 24.3 °F 30.2 °F 100% 29.55 in 2.0 mi ESE 5.8 mph - N/A Snow Light Snow
9:34 PM 30.4 °F 23.6 °F 30.4 °F 100% 29.54 in 2.5 mi ESE 6.9 mph - N/A Snow Light Snow
9:54 PM 30.2 °F 24.3 °F 30.2 °F 100% 29.54 in 5.0 mi SE 5.8 mph - N/A Snow Light Snow
10:15 PM 30.2 °F 23.4 °F 30.2 °F 100% 29.53 in 1.8 mi ESE 6.9 mph - N/A Snow Light Snow
10:34 PM 30.0 °F 25.2 °F 30.0 °F 100% 29.53 in 2.0 mi SE 4.6 mph - N/A Snow Light Snow
10:54 PM 30.2 °F 22.6 °F 30.2 °F 100% 29.52 in 7.0 mi SE 8.1 mph - N/A   Overcast
11:14 PM 30.2 °F 24.3 °F 30.0 °F 99% 29.51 in 5.0 mi SE 5.8 mph - N/A Snow Light Snow
11:54 PM 30.0 °F 25.2 °F 30.0 °F 100% 29.50 in 5.0 mi SE 4.6 mph - N/A Snow Light Snow